This is the latest recevied weather packets stored in our database for station/object WC0AA-WX. If no packets are shown the sender has not sent any weather packets the latest 10 day(s).
| Time | Temp. | Humidity | Pressure | Rain* | Wind** | Luminosity | Snow |
|---|---|---|---|---|---|---|---|
| 1778036326 | 11.67° C | 46% | 1013.9 hPa | 0 mm | - | - | - |
| 1778035725 | 11.67° C | 45% | 1013.5 hPa | 0 mm | - | - | - |
| 1778035124 | 11.67° C | 45% | 1013.3 hPa | 0 mm | - | - | - |
| 1778029114 | 12.78° C | 48% | 1012.5 hPa | 0 mm | - | - | - |
| 1778027912 | 12.78° C | 47% | 1012.4 hPa | 0 mm | - | - | - |
| 1778027312 | 12.78° C | 49% | 1012.3 hPa | 0 mm | - | - | - |
| 1778026711 | 12.78° C | 49% | 1012.1 hPa | 0 mm | - | - | - |
| 1778025509 | 12.78° C | 49% | 1012.2 hPa | 0 mm | - | - | - |
| 1778024908 | 12.78° C | 49% | 1012.3 hPa | 0 mm | - | - | - |
| 1778023706 | 12.78° C | 49% | 1012.4 hPa | 0 mm | - | - | - |
| 1778021904 | 13.33° C | 46% | 1012.3 hPa | 0 mm | - | - | - |
| 1778021303 | 13.33° C | 45% | 1012.3 hPa | 0 mm | - | - | - |
| 1778020702 | 13.33° C | 44% | 1012.5 hPa | 0 mm | - | - | - |
| 1778019501 | 13.33° C | 44% | 1012.1 hPa | 0 mm | - | - | - |
| 1778017698 | 13.33° C | 43% | 1012.5 hPa | 0 mm | - | - | - |
| 1778016496 | 13.33° C | 42% | 1012.6 hPa | 0 mm | - | - | - |
| 1778011688 | 13.89° C | 43% | 1012.9 hPa | 0 mm | - | - | - |
| 1778011087 | 13.89° C | 44% | 1012.9 hPa | 0 mm | - | - | - |
| 1778009885 | 13.33° C | 47% | 1013 hPa | 0 mm | - | - | - |
| 1778009284 | 13.33° C | 49% | 1012.9 hPa | 0 mm | - | - | - |
| 1778007482 | 13.89° C | 43% | 1012.9 hPa | 0 mm | - | - | - |
| 1778006279 | 13.89° C | 50% | 1013.1 hPa | 0 mm | - | - | - |
| 1778005078 | 13.33° C | 52% | 1013.5 hPa | 0 mm | - | - | - |
| 1778004477 | 13.33° C | 55% | 1013.5 hPa | 0 mm | - | - | - |
| 1778003876 | 12.78° C | 57% | 1013.4 hPa | 0 mm | - | - | - |
* Rain latest hour (hover to see other rain measurements)
** Current wind speed in m/s (hover to see current wind gust speed)